Location: Berkeley
(37.8716°N, 122.2727°W)
Time: 20:54:33
(UTC-07:00)

Envisat - Pass Details

Date: 17 May 2026
Orbit: 761 x 763 km, 98.4° (Epoch: 9 June)

Event Time Altitude Azimuth Distance (km) Brightness Sun altitude
Rises 02:21:10 0° 37° (NE) 3,227 7.3 -30.1°
Reaches altitude 10° 02:24:57 10° 66° (ENE) 2,295 6.0 -29.8°
Maximum altitude 02:27:04 13° 91° (E) 2,118 5.5 -29.6°
Enters shadow 02:28:26 11° 107° (ESE) 2,190 5.4 -29.5°
